Burns, OR

5:27 AM PDT on May 27, 2017 (GMT -0700)
Burns Municipal

Weather History for KBNO - December, 2012

Change the Weather History Date:

Monday, December 31, 2012

  Actual Average Record
Temperature  
Mean Temperature 13 °F 24 °F  
Max Temperature 18 °F 34 °F 53 °F (1996)
Min Temperature 7 °F 13 °F -25 °F (2010)
Degree Days  
Heating Degree Days 52 42  
Month to date heating degree days 1216 1270  
Since 1 July heating degree days 2890 3267  
Cooling Degree Days 0 0  
Month to date cooling degree days 0 0  
Year to date cooling degree days 309 215  
Moisture  
Dew Point 11 °F    
Average Humidity 88    
Maximum Humidity 96    
Minimum Humidity 80    
Precipitation  
Precipitation 0.00 in 0.05 in 0.52 in (1981)
Month to date precipitation 1.73 1.55  
Year to date precipitation 10.33 10.92  
Sea Level Pressure  
Sea Level Pressure 30.38 in    
Wind  
Wind Speed 3 mph (WSW)    
Max Wind Speed 9 mph    
Max Gust Speed 13 mph    
Visibility 10 miles    
Events      
T = Trace of Precipitation, MM = Missing Value Source: NWS Daily Summary

Daily Weather History Graph

Daily Weather History Graph

Search for Another Location

Airport or City:

Trip Planner

Search our weather history database for the weather conditions in past years. The results will help you decide how hot, cold, wet, or windy it might be!

Date:

Astronomy

Dec. 31, 2012 Rise Set
Actual Time 7:29 AM PST 4:29 PM PST
Civil Twilight 6:56 AM PST 5:02 PM PST
Nautical Twilight 6:20 AM PST 5:38 PM PST
Astronomical Twilight 5:45 AM PST 6:12 PM PST
Moon 8:11 PM PST (12/31) 9:06 AM PST (12/31)
Length of Visible Light 10h 05m
Length of Day
9h 00m
Waning Gibbous, 89% of the Moon is Illuminated
Dec 31
Waning Gibbous
Jan 4
Last Quarter
Jan 11
New
Jan 18
First Quarter
Jan 26
Full

Hourly Weather History & Observations

Time (PST) Temp. Windchill Dew Point Humidity Pressure Visibility Wind Dir Wind Speed Gust Speed Precip Events Conditions
12:53 AM 18.0 °F 9.8 °F 14.0 °F 84% 30.37 in 10.0 mi WSW 5.8 mph - N/A   Overcast
1:53 AM 18.0 °F 9.8 °F 12.9 °F 81% 30.37 in 10.0 mi WSW 5.8 mph - N/A   Overcast
2:53 AM 17.1 °F 5.8 °F 14.0 °F 88% 30.39 in 10.0 mi West 9.2 mph - N/A   Overcast
3:53 AM 16.0 °F 8.8 °F 12.9 °F 88% 30.37 in 10.0 mi WSW 4.6 mph - N/A   Overcast
4:53 AM 16.0 °F 10.4 °F 12.9 °F 88% 30.37 in 10.0 mi WNW 3.5 mph - N/A   Overcast
5:45 AM 15.8 °F - 12.2 °F 86% 30.21 in 10.0 mi Calm Calm - N/A   Overcast
5:53 AM 16.0 °F - 12.9 °F 88% 30.37 in 10.0 mi Calm Calm - N/A   Overcast
6:53 AM 15.1 °F 6.4 °F 12.9 °F 91% 30.37 in 10.0 mi West 5.8 mph - N/A   Overcast
7:53 AM 14.0 °F 6.5 °F 12.0 °F 92% 30.38 in 10.0 mi WNW 4.6 mph - N/A   Overcast
8:53 AM 15.1 °F - 12.0 °F 88% 30.40 in 10.0 mi Calm Calm - N/A   Overcast
9:53 AM 14.0 °F - 12.0 °F 92% 30.41 in 10.0 mi Calm Calm - N/A   Overcast
10:53 AM 14.0 °F 8.2 °F 12.0 °F 92% 30.40 in 10.0 mi South 3.5 mph - N/A   Overcast
11:53 AM 15.1 °F 7.7 °F 12.0 °F 88% 30.38 in 10.0 mi SW 4.6 mph - N/A   Overcast
12:53 PM 16.0 °F - 12.0 °F 84% 30.35 in 10.0 mi Calm Calm - N/A   Overcast
1:53 PM 17.1 °F 11.7 °F 12.9 °F 84% 30.34 in 10.0 mi West 3.5 mph - N/A   Overcast
2:53 PM 16.0 °F 8.8 °F 12.0 °F 84% 30.34 in 10.0 mi SE 4.6 mph - N/A   Overcast
3:14 PM 15.8 °F - 10.4 °F 79% 30.19 in 10.0 mi Calm Calm - N/A   Partly Cloudy
3:53 PM 14.0 °F 6.5 °F 10.0 °F 84% 30.35 in 10.0 mi NE 4.6 mph - N/A   Overcast
4:53 PM 10.0 °F 0.4 °F 7.0 °F 87% 30.37 in 10.0 mi North 5.8 mph - N/A   Clear
5:53 PM 9.0 °F - 6.1 °F 88% 30.39 in 10.0 mi Calm Calm - N/A   Overcast
6:53 PM 10.0 °F 3.6 °F 8.1 °F 92% 30.40 in 10.0 mi East 3.5 mph - N/A   Overcast
7:53 PM 10.9 °F 4.7 °F 9.0 °F 92% 30.41 in 10.0 mi SSE 3.5 mph - N/A   Mostly Cloudy
8:53 PM 12.0 °F 4.1 °F 8.1 °F 84% 30.42 in 10.0 mi North 4.6 mph - N/A   Overcast
9:53 PM 10.0 °F - 7.0 °F 87% 30.44 in 10.0 mi Calm Calm - N/A   Clear
10:53 PM 10.9 °F 4.7 °F 9.0 °F 92% 30.45 in 10.0 mi SSW 3.5 mph - N/A   Overcast
11:53 PM 10.9 °F - 8.1 °F 88% 30.47 in 10.0 mi Calm Calm - N/A   Overcast